GSAT-7A

Last updated on June 26, 2019, 3:46 a.m. UTC

1 43864U 18105A   19176.83954381  .00000033  00000-0  00000+0 0  9990
2 43864   0.0435 121.1506 0002200 323.9921 193.5415  1.00269791  1912
UTC
Height (km)
Latitude
Longitude
Inclination
Orbital Period
UTC large
Height (km)
Speed (km/s)
/
Latitude / Longitude
Inclination (degrees)
Orbital Period (minutes)
Azimuth
Elevation
Range (km)
Doppler Factor
iOS Compass Heading
iOS Angle

Next 30 passes for location: Hong Kong

Rise time Rise Azimuth (degrees) Set time Set Azimuth (degrees) Duration Max altitude (degrees)

No matching passes for this satellites